GFSNIL_con_lsi_000.txt.gz
Lid_Strength_Index
3 3 3 3 3 3 3 3 3 2 2 1 1 2 2 2 2 2 3 3 3 3
2 3 3 3 3 3 3 2 2 2 2 1 2 2 2 2 2 2 2 2 2 2
2 2 2 2 3 2 3 2 2 2 2 2 2 2 1 2 3 2 1 1 1 1
2 2 2 2 2 2 2 2 2 2 2 2 2 2 2 2 2 2 2 1 1 2
2 2 2 2 2 2 2 2 2 2 2 2 2 2 2 2 1 2 2 1 1 2
3 3 2 2 2 2 2 2 1 2 2 2 1 2 1 2 2 1 1 1 1 1
3 3 3 2 2 2 2 2 2 2 1 1 1 1 1 1 2 2 2 2 1 1
3 3 2 2 2 2 2 2 2 2 2 1 1 1 1 1 1 1 2 2 1 1
3 1 2 2 3 2 2 2 2 2 2 2 2 7 5 2 1 1 1 2 1 2
4 2 3 2 3 3 3 4 4 4 3 5 4 7 6 4 1 1 1 2 1 1
4 2 3 4 3 4 4 4 5 5 6 5 5 8 8 6 1 1 2 2 2 2
4 3 3 4 4 4 4 4 5 6 6 7 7 10 9 4 2 2 3 3 3 3
3 3 3 4 3 3 3 4 3 4 6 7 9 10 8 5 3 4 5 5 4 7
2 3 3 3 3 3 3 3 3 4 5 5 8 10 9 7 4 4 6 4 4 6

GFSNIL_con_lsi_003.txt.gz
Lid_Strength_Index
3 4 4 4 4 4 4 4 3 2 2 2 2 2 2 2 2 2 2 3 3 3
3 4 3 3 3 3 3 2 2 2 2 2 2 2 2 2 2 2 3 3 3 2
2 3 3 3 3 3 3 3 2 2 2 2 2 2 2 3 1 1 2 2 2 2
3 3 3 3 3 3 3 2 2 2 2 3 3 2 3 2 1 1 1 1 2 2
2 3 3 3 3 3 3 2 2 2 2 2 3 3 2 3 2 2 2 1 1 2
3 3 3 3 3 3 2 2 2 2 2 2 2 2 2 2 2 2 2 1 1 1
3 3 3 3 3 3 2 2 2 2 2 2 2 2 2 2 1 1 2 1 1 2
3 3 2 2 2 2 3 2 2 2 2 2 2 1 2 2 2 2 2 1 2 1
3 3 2 3 3 3 3 2 2 2 2 2 1 8 5 2 1 1 1 2 2 2
3 3 3 3 3 3 4 4 3 3 3 3 4 8 7 4 1 1 2 1 1 1
4 3 3 4 4 4 4 5 5 4 5 4 5 9 8 5 1 1 2 1 1 1
4 4 4 4 4 5 5 6 6 6 5 4 5 9 9 4 1 2 2 2 2 1
4 4 4 4 4 5 5 5 5 6 6 7 6 11 10 4 2 4 3 3 4 6
4 3 4 4 4 5 5 5 5 5 7 7 7 8 10 8 3 3 5 4 5 6

GFSNIL_con_lsi_006.txt.gz
Lid_Strength_Index
3 3 3 2 3 3 3 2 2 1 1 1 1 1 1 1 1 1 1 1 1 1
3 3 2 2 2 3 2 2 1 1 1 1 1 1 1 1 1 1 1 1 1 1
3 3 2 2 2 2 2 1 1 1 1 1 1 1 1 1 0 1 1 1 1 1
2 3 2 2 2 2 2 1 1 1 1 1 1 2 1 1 2 1 1 1 1 1
2 2 2 2 2 2 2 1 1 1 1 1 2 1 1 1 1 1 2 1 1 2
2 3 3 3 2 2 2 1 1 1 1 1 1 2 2 1 1 1 1 1 1 1
3 3 2 2 2 2 1 2 1 1 1 1 1 1 1 1 1 1 1 1 1 1
3 2 2 2 2 2 1 1 1 1 1 1 1 1 1 1 1 1 1 1 1 1
3 2 2 2 2 2 2 1 1 1 1 1 1 7 5 2 1 1 1 2 2 2
2 2 2 2 2 2 2 2 2 2 2 1 2 9 7 5 1 1 1 1 1 1
2 3 3 2 2 3 3 3 3 3 2 2 3 9 8 6 1 2 1 1 1 1
3 3 3 3 3 3 4 4 3 3 2 2 4 9 9 3 1 1 1 1 1 1
3 3 3 3 4 4 3 4 4 4 3 5 3 10 9 4 1 2 2 2 2 5
2 3 3 3 3 4 3 4 4 5 5 4 4 5 10 7 1 2 3 2 3 2

GFSNIL_con_lsi_009.txt.gz
Lid_Strength_Index
0 0 0 0 0 0 1 0 -0 -0 -1 -0 -0 -0 -0 0 0 -0 0 1 1 1
0 1 1 0 -0 0 0 0 -0 -0 -1 -0 -0 -0 -0 0 0 0 0 1 1 1
0 0 0 0 0 0 -0 -0 -0 -0 -0 -0 -0 -0 -0 0 0 0 0 1 1 1
1 0 0 0 0 0 -0 -0 0 -0 -0 -0 0 0 0 0 0 1 1 1 1 1
1 0 1 0 0 -0 0 -0 0 -0 0 0 0 0 1 1 1 1 2 1 1 1
1 1 1 1 0 0 0 -0 0 0 1 1 0 0 0 1 1 1 1 1 1 1
1 1 1 0 0 0 0 0 0 0 0 0 0 0 0 0 1 1 1 1 1 1
1 1 0 1 0 0 0 0 0 0 0 0 0 0 0 0 1 1 1 1 1 0
1 1 1 1 0 0 0 0 0 0 0 0 0 7 4 1 1 1 1 1 1 1
1 1 1 1 1 1 1 0 1 1 0 1 0 8 7 4 0 1 1 1 1 1
1 1 1 1 1 1 1 1 1 1 0 0 0 9 8 6 0 1 1 0 0 1
1 1 1 1 1 1 1 1 1 0 1 1 1 9 9 3 1 1 1 0 0 0
1 1 1 1 1 1 1 1 1 1 0 3 1 10 9 3 1 1 1 1 0 6
1 1 1 1 1 1 1 1 1 1 1 0 1 3 10 6 1 1 1 1 1 0

GFSNIL_con_lsi_015.txt.gz
Lid_Strength_Index
-0 1 0 1 1 1 1 0 -1 -1 -1 -0 -1 -0 -1 0 0 -1 -0 0 0 0
0 0 1 0 -0 1 -0 0 -0 -0 -0 -0 -0 -0 -0 -0 0 0 0 0 -0 1
0 0 -0 -0 0 0 -0 -1 -0 -0 -0 -0 -0 -0 0 0 0 0 1 0 0 0
1 0 -0 0 0 0 -0 -0 0 -0 0 0 0 -0 -0 1 1 1 1 1 1 1
0 0 0 0 0 -0 0 -0 -0 -0 -0 0 0 0 1 1 1 1 1 1 1 2
0 0 0 0 0 -0 -0 -0 -0 -0 0 1 0 1 0 1 1 1 1 1 1 1
1 1 1 0 0 -0 -0 -0 -0 -0 1 0 0 0 0 1 1 1 1 1 1 1
1 0 0 1 0 -0 -0 -0 -0 0 0 0 0 0 1 1 1 1 1 1 1 1
1 1 0 0 0 0 0 0 0 1 1 0 1 6 5 3 1 1 1 2 1 0
1 1 1 1 1 1 1 0 1 1 0 1 0 6 7 6 1 1 1 1 1 1
1 1 1 1 1 0 0 0 1 0 0 1 1 7 8 8 0 1 1 0 0 1
1 1 1 2 1 0 1 0 0 0 1 1 1 8 8 5 1 1 1 1 0 0
1 1 1 1 1 0 0 1 1 1 0 3 1 9 9 5 1 1 1 0 1 7
0 1 0 0 0 0 0 1 1 1 1 0 1 2 9 8 1 1 1 1 1 0

GFSNIL_con_lsi_021.txt.gz
Lid_Strength_Index
2 2 2 2 2 3 3 2 2 1 1 2 1 1 2 2 2 2 2 2 2 3
2 2 3 2 2 2 2 2 1 2 2 1 1 1 2 2 2 2 2 2 2 2
2 2 2 2 2 2 2 2 2 2 2 1 1 1 2 2 1 1 2 2 2 2
2 1 2 2 1 2 2 1 2 1 1 1 1 1 2 2 1 2 2 2 2 2
2 2 2 2 2 2 2 2 1 1 1 1 1 2 2 2 1 2 2 2 2 2
2 2 2 2 1 2 2 1 1 1 1 1 1 2 2 2 1 2 1 2 2 2
2 2 2 2 2 1 1 1 1 1 1 1 1 1 1 1 1 1 1 2 2 2
2 2 2 2 2 2 1 2 1 1 1 2 3 3 2 1 2 2 2 2 1 2
2 2 2 2 2 2 2 1 1 1 2 3 2 8 7 4 2 2 2 2 3 3
2 2 2 2 2 2 2 1 2 2 3 4 4 9 10 8 2 2 2 2 1 2
2 2 2 2 2 2 2 3 3 2 3 4 4 9 10 7 2 2 2 2 2 1
2 2 2 2 2 2 2 2 2 2 4 4 4 9 11 4 2 2 2 1 1 1
2 2 2 2 2 2 2 2 1 2 3 4 4 9 10 4 2 2 3 3 3 6
2 2 2 2 2 2 2 2 2 2 3 2 4 6 10 7 2 2 2 3 3 4

GFSNIL_con_lsi_024.txt.gz
Lid_Strength_Index
3 3 3 3 3 3 3 3 3 2 2 2 2 2 2 3 2 2 2 3 3 3
3 3 3 3 3 3 3 3 2 2 2 2 2 2 2 2 2 2 2 2 2 3
3 3 3 2 3 3 3 2 2 2 2 2 2 2 2 2 2 2 2 2 2 2
2 2 3 3 3 3 3 2 2 2 2 2 2 2 2 1 1 2 2 2 2 2
3 3 3 2 2 2 3 2 2 2 1 1 1 2 2 2 1 2 2 2 2 2
2 3 3 3 2 3 2 2 1 2 2 1 2 2 2 1 1 2 2 2 2 2
2 3 3 2 2 2 2 1 1 1 1 1 2 1 1 1 1 2 2 2 2 2
2 2 2 2 2 1 1 1 1 1 2 3 3 3 3 2 2 2 2 2 2 1
2 2 2 2 2 3 2 1 1 2 3 4 3 9 8 4 2 2 2 3 2 2
2 2 2 2 2 3 2 2 2 3 4 5 5 10 10 6 2 2 2 2 2 3
2 2 2 2 2 3 3 3 3 4 4 5 4 10 10 7 2 3 2 2 2 3
2 2 2 2 3 3 3 3 4 4 4 4 5 10 10 4 3 2 2 1 2 2
2 2 2 2 3 3 3 2 2 3 4 5 4 11 10 4 2 2 2 2 3 7
2 3 2 3 3 3 3 3 2 4 4 3 5 7 10 7 3 2 2 2 3 4

GFSNIL_con_lsi_027.txt.gz
Lid_Strength_Index
5 5 4 4 4 4 4 3 3 3 3 2 2 2 3 3 3 2 2 3 3 4
4 3 4 4 4 4 4 3 3 3 2 2 2 2 2 2 2 2 2 3 3 4
3 3 3 3 3 4 3 3 2 2 2 2 2 2 2 3 2 2 2 2 2 3
3 3 3 3 3 3 3 2 2 2 2 2 2 2 3 2 1 2 2 2 3 3
3 3 3 3 3 3 3 3 2 2 2 2 2 2 3 2 1 2 2 2 2 3
3 3 3 3 3 3 3 3 2 2 2 2 2 2 2 2 1 2 2 2 2 3
3 3 3 3 3 3 3 2 2 1 1 2 2 2 1 1 1 2 2 2 2 2
2 3 3 3 3 3 2 1 1 1 3 3 3 4 3 1 2 2 2 2 1 1
2 3 3 3 3 3 2 1 1 3 3 4 3 10 7 3 2 2 2 2 2 2
2 2 2 2 3 3 2 2 2 3 4 4 4 11 9 6 2 3 2 2 2 2
2 2 2 2 3 3 2 2 3 4 5 4 5 11 10 7 2 2 2 2 3 3
2 2 3 4 3 4 4 4 4 4 5 4 5 11 9 5 2 2 2 2 2 3
3 2 3 3 3 3 3 4 3 4 5 6 4 11 9 5 2 2 2 3 4 8
3 2 2 3 3 3 3 3 4 4 5 4 5 6 10 8 2 2 2 3 4 6

GFSNIL_con_lsi_030.txt.gz
Lid_Strength_Index
5 5 4 4 3 3 3 3 3 2 2 2 1 1 1 1 1 1 1 2 2 2
5 5 4 3 3 3 3 2 2 2 2 2 1 1 1 2 1 1 1 1 1 2
4 3 3 3 3 3 2 2 2 2 1 1 1 1 1 1 1 1 1 1 1 1
3 3 3 3 3 3 2 2 1 1 1 1 1 1 1 1 1 1 1 1 1 1
3 3 3 3 2 2 2 1 1 1 1 1 1 1 1 2 1 2 2 2 2 2
3 3 3 2 2 2 2 1 1 1 1 1 1 1 1 2 1 2 2 2 2 2
3 3 2 2 2 2 2 2 1 1 1 1 1 1 1 1 1 2 2 1 2 2
3 2 2 2 2 2 1 1 1 1 2 2 2 4 3 1 2 2 2 1 1 1
2 3 2 2 2 2 1 1 1 2 2 2 3 10 7 3 1 2 2 2 1 1
2 2 2 2 2 2 1 1 2 2 3 3 4 11 8 6 2 1 2 2 2 2
2 2 2 2 2 2 1 2 2 3 3 3 5 10 9 7 1 1 2 2 2 3
2 2 2 2 3 2 2 2 3 3 3 2 4 10 9 4 1 2 3 2 2 2
2 2 2 3 3 2 2 2 2 3 3 5 4 10 10 4 1 3 3 3 4 8
2 2 2 2 2 2 2 2 3 4 3 3 4 6 10 7 2 2 3 4 4 6

GFSNIL_con_lsi_033.txt.gz
Lid_Strength_Index
1 1 1 1 1 1 1 1 -0 -0 -0 -0 -0 -0 -0 0 0 0 1 1 1 1
1 1 1 1 0 1 0 0 0 -0 0 -0 -0 -0 -0 0 0 0 1 1 0 1
1 1 1 1 1 1 0 0 0 0 0 -0 -0 -0 -0 0 0 0 1 1 1 1
1 1 1 1 1 0 0 0 0 0 0 0 0 -0 0 0 0 1 1 1 1 1
1 1 1 1 0 0 0 -0 0 0 0 0 0 0 0 1 1 1 2 2 1 1
1 1 1 1 0 0 0 0 0 0 1 1 0 0 0 1 1 1 1 1 1 1
1 1 1 1 0 0 0 0 0 0 0 0 0 0 0 1 1 1 1 1 1 1
1 1 1 1 1 0 0 0 0 0 0 0 0 1 1 1 1 1 2 1 1 0
1 1 1 1 1 1 0 0 1 1 1 1 0 10 7 2 1 1 1 2 1 1
1 1 1 1 1 1 1 1 1 1 0 1 1 10 8 6 1 1 1 1 2 1
1 2 1 1 1 1 1 1 1 1 1 1 3 9 9 7 0 1 1 2 2 2
1 1 1 1 1 1 1 1 1 1 1 1 2 10 9 3 1 1 2 2 2 2
1 1 1 1 1 1 1 1 1 1 1 4 2 10 9 4 1 2 3 3 3 7
1 1 1 1 1 1 1 1 1 1 1 1 2 4 10 7 1 2 3 3 4 5

GFSNIL_con_lsi_039.txt.gz
Lid_Strength_Index
1 1 1 1 1 1 1 1 0 0 -0 -0 -0 -0 -0 0 0 -0 0 0 0 0
1 1 1 1 1 1 0 1 0 -0 -0 -0 -0 -0 -0 0 0 -0 0 0 0 1
1 1 1 1 1 1 1 0 0 0 -0 -0 -0 -0 -0 0 0 0 0 0 1 1
2 1 1 1 1 0 -0 0 0 0 0 0 -0 -0 -0 0 0 1 1 0 1 1
1 1 1 1 0 0 0 -0 0 0 0 0 0 -0 0 1 1 1 1 1 2 1
1 1 1 1 0 0 0 0 -0 0 0 0 1 0 0 0 1 1 1 1 1 1
1 1 1 0 0 0 0 0 0 0 1 1 0 0 0 0 1 1 1 1 1 1
1 1 1 0 0 0 0 0 0 0 1 0 0 1 1 0 1 1 1 1 1 0
1 1 1 1 1 0 1 1 1 1 1 0 1 7 7 3 1 1 1 2 1 0
1 2 1 1 1 1 1 1 1 1 1 1 1 8 7 6 1 1 1 1 1 1
1 2 1 1 1 1 1 0 1 0 0 1 1 8 8 7 1 1 1 1 1 1
2 2 2 2 2 2 1 1 1 0 1 1 1 8 8 5 1 1 1 1 1 1
1 1 2 1 2 1 1 1 1 1 0 3 1 9 8 3 1 2 3 2 2 6
1 1 1 1 1 1 1 1 1 1 1 1 1 2 7 6 1 2 2 3 3 1

GFSNIL_con_lsi_042.txt.gz
Lid_Strength_Index
1 2 2 2 2 2 2 1 1 1 1 1 0 0 0 1 1 1 1 1 2 2
2 2 2 1 1 1 1 1 1 1 1 1 0 1 1 1 1 1 1 1 1 2
2 1 1 1 2 1 1 1 1 1 1 1 1 1 1 1 1 1 1 1 1 1
2 1 1 1 1 1 1 1 1 1 1 1 1 1 1 1 1 1 1 1 1 2
2 2 2 2 1 1 1 1 1 1 1 1 1 1 1 1 1 2 2 2 2 2
2 2 2 2 1 1 1 1 1 1 1 1 1 1 1 1 1 1 1 1 2 1
2 2 2 1 1 1 1 1 1 1 1 1 1 1 1 1 1 1 1 1 1 1
2 1 1 1 1 1 1 1 1 1 1 1 1 1 1 1 1 1 2 1 1 1
2 2 2 1 1 1 1 1 1 1 1 1 1 8 7 1 1 1 2 2 1 1
2 2 2 1 2 2 2 1 1 1 1 1 2 8 8 4 1 1 1 1 1 1
2 2 2 2 2 2 1 2 1 2 1 1 3 7 8 7 1 1 1 1 1 1
2 2 2 2 2 2 2 2 1 1 1 2 2 8 8 4 1 1 2 1 1 1
2 2 2 2 2 1 1 1 1 2 1 4 1 9 8 3 1 2 2 2 1 8
2 2 2 2 1 1 1 2 2 2 1 1 1 4 7 6 2 2 2 3 2 3

GFSNIL_con_lsi_045.txt.gz
Lid_Strength_Index
2 2 2 2 2 3 3 3 2 1 1 1 1 1 1 1 2 2 2 3 3 3
3 2 3 3 3 3 3 2 1 1 1 1 1 1 1 1 2 2 2 2 3 2
2 2 3 3 3 3 2 1 1 1 1 2 1 1 2 2 2 2 2 2 2 2
2 2 3 2 2 1 1 1 1 1 2 2 1 1 2 2 2 2 2 2 2 2
2 2 2 2 2 1 2 2 2 1 1 1 1 1 2 2 2 2 2 2 2 2
3 3 3 2 2 2 2 2 2 2 1 1 2 1 1 1 2 2 2 2 3 3
3 3 3 2 2 2 1 2 2 2 1 1 1 1 1 2 2 2 3 3 2 1
2 2 2 2 2 2 2 2 1 1 1 2 2 1 1 2 2 3 3 3 2 1
2 2 2 3 2 2 2 2 1 2 2 2 2 9 6 2 2 3 2 3 2 2
2 2 2 2 2 2 2 2 2 2 2 3 5 9 8 4 2 2 2 3 2 2
2 2 2 2 2 2 2 2 2 2 2 4 5 9 7 6 1 2 2 2 2 2
2 2 2 3 2 2 2 3 3 2 3 4 4 9 8 4 2 2 2 2 3 2
2 2 2 2 2 2 2 2 2 2 3 5 4 9 6 3 2 2 3 3 3 8
2 2 2 2 2 2 2 2 2 3 3 3 4 5 8 6 2 2 3 3 4 5

GFSNIL_con_lsi_048.txt.gz
Lid_Strength_Index
2 2 2 2 2 2 2 3 3 3 2 1 1 1 2 2 2 2 2 3 4 4
2 2 2 2 2 3 3 3 3 3 2 1 1 1 2 2 2 2 2 4 4 4
2 2 2 2 3 3 3 3 3 3 2 1 1 2 2 2 2 3 3 4 3 3
2 2 2 3 3 3 3 3 2 1 2 1 2 2 2 3 3 3 3 3 3 3
2 2 2 3 3 3 3 1 1 1 1 2 2 2 3 3 2 3 3 3 3 3
2 2 2 3 3 2 1 2 1 1 2 2 2 2 2 2 2 3 3 3 2 2
3 3 3 3 2 2 2 2 2 2 2 2 2 1 2 2 2 3 3 3 3 3
4 4 3 3 2 2 2 2 3 3 2 2 1 1 1 2 3 3 4 3 3 2
3 3 3 3 3 3 3 3 2 3 3 3 3 9 7 4 3 4 3 3 2 1
3 3 3 3 3 3 3 3 3 3 3 3 5 10 8 5 3 3 3 3 3 2
2 2 3 3 3 3 2 2 2 2 3 4 6 10 8 6 2 2 2 2 2 2
2 3 3 3 3 2 2 2 2 3 4 5 5 9 8 5 3 3 3 3 2 2
3 2 3 2 2 2 2 3 3 4 4 6 4 10 9 5 3 3 3 3 4 7
2 2 2 2 2 2 2 3 3 4 4 4 4 6 9 7 2 2 3 3 4 6

GFSNIL_con_lsi_051.txt.gz
Lid_Strength_Index
3 4 3 3 2 2 2 2 2 2 2 2 2 2 3 2 3 3 2 3 3 3
3 4 2 2 2 2 2 2 2 2 3 2 2 2 2 2 2 2 2 2 3 4
2 2 2 2 2 3 3 2 3 3 3 2 1 2 2 2 2 3 3 3 4 5
2 2 2 2 2 2 2 3 3 3 3 2 2 2 2 3 3 3 4 4 4 4
2 2 2 2 2 2 3 3 3 3 3 1 2 2 2 3 2 3 4 4 4 3
3 2 2 3 3 3 3 3 2 2 2 1 2 2 2 2 3 3 3 3 4 3
3 3 2 3 3 3 2 3 2 1 1 2 2 2 3 2 3 3 4 4 3 3
2 2 2 2 3 2 2 2 2 2 3 2 2 2 2 3 3 4 4 4 3 3
2 2 3 3 2 2 3 4 3 3 3 3 3 9 6 4 4 4 4 4 4 3
3 4 4 3 3 4 4 4 4 4 4 4 5 10 9 7 3 4 4 3 3 2
3 4 4 4 4 4 4 4 4 4 4 4 6 10 9 7 3 4 3 3 2 2
3 4 4 5 4 3 4 4 4 3 3 3 5 10 10 5 3 3 4 3 2 2
3 4 3 3 3 3 2 3 3 4 4 5 5 10 10 5 3 3 4 4 4 7
3 3 3 3 2 2 3 4 4 5 4 3 4 6 10 8 3 3 4 4 4 5

GFSNIL_con_lsi_054.txt.gz
Lid_Strength_Index
2 2 2 2 2 3 2 2 1 1 1 1 1 2 2 2 2 3 3 2 3 3
2 2 2 3 3 3 2 1 1 1 1 1 2 2 2 2 2 3 2 2 2 2
2 2 2 3 3 2 1 1 1 1 1 2 2 2 2 2 2 2 2 2 2 3
2 2 2 2 2 1 1 1 1 1 2 2 2 2 2 2 2 2 3 3 3 3
2 2 2 2 2 1 1 1 1 2 2 2 2 2 2 2 2 2 3 3 3 3
2 2 2 2 2 1 1 2 2 2 2 2 2 1 2 2 2 3 3 2 2 2
3 2 2 2 2 2 1 2 2 2 2 2 1 1 2 2 2 2 2 2 2 2
2 2 2 2 2 1 2 2 2 2 2 1 1 2 2 2 2 2 2 2 2 2
2 2 2 2 2 2 2 3 2 2 2 2 3 9 7 3 2 2 2 2 2 2
3 3 2 2 2 3 3 3 3 3 4 4 5 11 9 7 2 2 2 2 2 2
3 3 3 2 3 3 3 4 4 4 4 4 6 11 10 8 2 2 2 2 1 1
3 3 3 4 4 4 5 4 4 3 4 4 6 11 10 4 2 2 2 2 1 1
3 3 4 4 4 4 4 4 3 3 3 5 5 11 10 4 2 3 2 2 3 7
3 3 3 3 4 4 4 4 4 4 3 3 4 7 10 8 2 2 3 3 4 4